Total_Precipitation_Accumulation
3.74 3.80 3.62 3.60 3.43 3.58 3.72 3.74 3.43 3.57 3.80 3.81 3.61 3.55 3.52 3.18 3.00 2.89 3.04 3.22 3.12 3.09 3.37 3.40 3.33 3.21 2.89 2.53 2.37 2.24 2.16 1.99 1.81 1.55 1.44 1.35 1.26 1.16 1.03 0.98 0.94 0.84 0.82
3.46 3.37 3.45 3.58 3.39 3.40 3.41 3.43 3.46 3.81 4.02 4.09 3.78 3.55 3.49 3.37 3.20 3.18 3.26 3.48 3.41 3.14 3.30 3.74 3.96 3.89 3.66 3.32 2.99 2.72 2.58 2.38 2.07 1.66 1.49 1.45 1.35 1.26 1.21 1.18 1.07 0.93 0.89
3.41 3.35 3.33 3.19 3.18 3.25 3.43 3.47 3.62 3.86 3.73 3.81 3.85 3.64 3.47 3.33 3.35 3.35 3.39 3.40 3.09 3.20 3.48 3.75 3.97 4.01 4.04 3.93 3.78 3.54 3.20 2.75 2.31 1.90 1.60 1.48 1.38 1.29 1.25 1.25 1.24 1.16 1.03
3.11 3.17 3.01 2.91 2.96 2.85 3.01 3.30 3.38 3.49 3.64 3.81 3.80 3.48 3.39 3.43 3.29 3.31 3.17 3.01 3.14 2.92 3.39 3.78 3.89 3.73 3.91 4.23 4.49 4.54 3.98 3.24 2.65 2.23 1.88 1.70 1.57 1.39 1.26 1.23 1.24 1.23 1.08
2.53 2.65 2.73 2.83 2.66 2.63 2.75 2.64 3.22 3.46 3.59 3.71 3.36 3.25 3.06 3.25 3.26 3.06 3.05 2.81 2.96 2.97 3.08 3.25 3.49 3.39 3.68 4.37 4.99 5.20 4.84 4.06 3.26 2.78 2.49 2.27 2.11 1.89 1.56 1.40 1.30 1.22 1.12
2.42 2.49 2.50 2.62 2.49 2.65 2.89 3.12 3.46 3.44 3.33 3.41 2.89 2.92 2.92 2.70 2.76 2.74 2.69 2.75 2.75 2.48 2.68 3.03 3.40 2.99 3.31 3.95 4.49 4.90 5.20 4.96 4.21 3.55 3.20 3.07 2.94 2.52 1.95 1.62 1.43 1.33 1.23
2.40 2.67 2.43 2.67 2.51 2.65 2.79 2.91 3.12 3.16 3.02 3.10 3.31 3.24 2.78 2.43 2.37 2.30 2.41 2.69 2.59 2.49 2.71 3.22 3.51 3.40 2.99 2.95 3.21 3.83 4.73 5.08 4.88 4.26 3.73 3.41 3.31 2.97 2.30 1.90 1.64 1.53 1.46
2.20 2.19 2.53 2.54 2.57 2.81 2.83 2.85 3.07 2.99 2.75 2.87 3.25 3.49 3.11 2.84 2.37 1.83 1.98 2.02 2.12 2.41 2.52 2.57 2.87 3.32 3.17 3.18 2.64 2.73 3.71 4.53 5.09 5.02 4.50 3.88 3.51 3.18 2.77 2.37 2.02 1.82 1.73
1.93 2.04 2.19 2.39 2.66 2.55 2.75 2.85 2.77 2.89 2.93 2.88 2.95 3.42 3.40 3.12 2.63 2.02 1.76 1.80 1.97 2.29 2.31 2.38 2.41 2.59 2.64 3.04 3.25 2.87 2.94 3.37 4.39 5.23 5.32 4.67 3.86 3.29 3.00 2.86 2.69 2.41 2.16
1.86 1.86 1.98 2.20 2.43 2.32 2.63 2.40 2.60 2.95 3.05 2.84 2.78 2.74 2.82 2.95 3.00 2.55 2.04 1.74 1.80 1.97 2.10 2.03 2.17 2.44 2.54 2.74 2.95 2.79 2.44 2.56 3.35 4.35 5.08 5.06 4.40 3.80 3.50 3.47 3.62 3.47 3.02
2.01 1.80 1.92 2.15 2.28 2.24 2.32 2.38 2.79 2.83 2.79 2.79 2.81 2.84 2.79 2.76 2.66 2.65 2.38 2.02 1.80 1.57 1.58 1.74 2.03 2.23 2.30 2.51 2.90 2.69 2.44 2.26 2.43 3.04 3.78 4.34 4.49 4.23 3.83 3.65 4.07 4.37 4.19
2.18 1.99 2.00 2.18 2.16 2.16 2.22 2.29 2.58 2.59 2.75 2.88 2.90 2.80 2.86 2.70 2.60 2.79 2.41 2.03 1.85 1.36 1.32 1.42 1.63 1.81 2.00 2.20 2.33 2.39 2.38 2.38 2.33 2.42 2.62 3.05 3.51 3.63 3.62 3.76 4.20 4.57 4.77
1.85 1.91 2.01 2.21 2.08 2.07 2.15 2.43 2.58 2.57 2.73 2.77 2.72 2.66 2.65 2.39 2.46 2.61 2.42 1.95 1.78 1.41 1.44 1.32 1.37 1.69 1.84 2.20 2.33 2.35 2.22 2.32 2.15 2.05 2.11 2.20 2.38 2.71 3.10 3.46 3.92 4.29 4.65
1.72 1.81 1.93 1.96 1.95 2.00 2.04 2.48 2.38 2.46 2.64 2.54 2.34 2.66 2.53 2.19 2.40 2.52 2.55 2.65 2.27 1.90 1.80 1.53 1.47 1.79 2.24 2.43 2.70 2.71 2.16 2.19 2.03 1.87 1.82 1.91 1.96 2.12 2.30 2.53 2.85 3.14 3.47
1.79 1.88 1.97 1.98 2.01 2.19 2.35 2.57 2.40 2.44 2.59 2.40 2.39 2.66 2.49 2.25 2.34 2.38 2.58 2.89 2.93 2.45 2.06 1.92 1.88 1.90 2.16 2.41 2.77 2.48 2.26 2.39 2.17 2.00 1.91 1.84 1.82 1.90 2.01 2.07 2.12 2.21 2.33
1.88 2.00 2.16 2.15 2.22 2.27 2.39 2.52 2.31 2.44 2.49 2.38 2.46 2.67 2.62 2.45 2.53 2.49 2.60 2.82 3.04 2.89 2.35 1.91 1.97 1.99 2.12 2.00 2.43 2.23 2.20 2.34 2.11 1.98 1.93 1.90 1.84 1.83 1.87 1.93 1.96 1.91 1.87
1.95 1.96 2.10 2.16 2.14 2.18 2.28 2.40 2.22 2.30 2.31 2.34 2.35 2.50 2.57 2.78 2.81 2.76 2.90 2.94 2.99 3.04 2.65 2.12 2.13 2.27 2.31 2.18 2.16 2.08 2.03 2.04 1.95 2.05 1.91 1.89 1.84 1.74 1.65 1.61 1.66 1.69 1.66
1.80 1.85 1.93 1.91 1.83 1.96 2.15 2.18 2.08 2.18 2.26 2.25 2.43 2.68 2.63 2.75 2.85 2.93 3.11 2.91 2.97 3.28 3.12 2.66 2.55 2.67 2.59 2.40 2.32 2.21 1.90 1.77 1.78 2.05 1.90 1.80 1.74 1.66 1.61 1.51 1.45 1.48 1.52
1.85 1.84 1.83 1.77 1.76 1.83 1.95 1.95 2.12 2.27 2.32 2.40 2.58 2.69 2.78 3.08 2.94 3.00 3.01 2.91 2.93 3.15 3.35 3.03 2.76 2.90 2.78 2.54 2.56 2.24 2.03 2.09 1.82 1.90 1.95 1.81 1.69 1.64 1.58 1.53 1.47 1.43 1.39
2.00 2.03 2.03 2.06 2.08 2.04 2.06 2.15 2.30 2.41 2.48 2.53 2.69 2.77 2.82 2.96 3.05 3.25 3.26 3.30 3.42 3.57 3.68 3.44 3.16 3.19 3.17 3.10 2.97 2.51 2.39 2.27 2.09 1.86 1.97 1.87 1.78 1.69 1.63 1.51 1.41 1.39 1.39
2.21 2.40 2.43 2.45 2.54 2.48 2.28 2.46 2.56 2.56 2.80 2.77 2.83 2.78 2.76 2.95 3.08 3.26 3.11 3.31 3.66 3.80 3.87 3.83 3.68 3.79 3.67 3.58 3.19 2.81 2.68 2.55 2.34 2.03 1.99 1.85 1.80 1.68 1.64 1.64 1.57 1.51 1.46
2.63 2.76 2.72 2.71 2.68 2.35 2.54 2.69 2.72 2.84 2.96 2.93 2.88 2.91 2.84 2.84 2.76 2.79 2.83 2.99 3.27 3.43 3.59 3.78 3.82 3.84 3.78 3.69 3.53 3.26 2.91 2.66 2.36 2.13 2.24 2.06 1.92 1.84 1.68 1.56 1.69 1.64 1.56
2.64 2.71 2.74 2.79 2.63 2.61 2.73 2.56 2.59 2.59 2.69 2.81 2.87 2.92 2.64 2.47 2.62 2.47 2.63 2.74 2.72 2.74 2.84 3.13 3.27 3.23 3.48 3.69 3.70 3.25 2.91 2.61 2.33 2.22 2.39 2.16 1.95 1.84 1.73 1.71 1.82 1.64 1.57
2.92 2.94 2.91 2.90 2.83 2.68 2.68 2.46 2.57 2.44 2.46 2.51 2.58 2.64 2.61 2.49 2.46 2.59 2.60 2.47 2.22 2.13 2.27 2.26 2.29 2.52 2.89 3.34 3.52 3.36 3.36 3.05 2.65 2.38 2.38 2.23 1.96 1.81 1.66 1.65 1.84 1.72 1.57
3.16 3.18 3.13 3.09 3.05 3.05 3.03 2.70 2.62 2.41 2.46 2.47 2.53 2.55 2.52 2.34 2.49 2.46 2.38 2.31 2.15 1.97 1.99 2.06 2.08 2.28 2.59 2.88 3.19 3.28 3.21 3.15 2.73 2.35 2.26 2.19 1.97 1.95 1.83 1.65 1.62 1.71 1.58
3.18 3.20 3.10 3.12 3.07 3.04 3.15 2.88 2.69 2.42 2.45 2.49 2.60 2.62 2.61 2.39 2.45 2.39 2.28 2.27 2.13 2.04 2.07 2.03 2.04 2.06 2.08 2.41 2.82 2.82 2.86 2.96 2.74 2.46 2.18 2.21 2.05 2.14 2.04 1.64 1.45 1.43 1.44